New Kenley Weather Station. Now works across all platform including Mobile Phones. Bug reports please use the "Contact Us" link.

Kenley Weather Cam  Kenley Weather Cam


Rain radar more information rain snow radar



Select another period ( hide this area )

Units Period Custom range Directly to
Metric English Both
Daily Weekly Monthly Yearly
use both date-selectors for a custom range
previous Day
With this date

WeatherUnderground graphs for this period ( click here )


Daily Summary for Sunday Feb 17 2019
Time Temp. ( °C ) Dew pt. ( °C ) Wind ( km/h ) from Gust ( km/h ) Pressure ( hPa ) Humid.( % ) Rainrate ( cm )
High13,1 8,5 0,0 ( 0/0 ) 57,9 1008,4 88 -
Average9,3 5,9 0,0 Calm #96/96 18,1 1003,8 80 -
Low7,0 4,5 -   0,0 1002,3 61 -
Daily Tabular details for Sunday Feb 17 2019
Time Temp. ( °C ) Dew pt. ( °C ) Wind ( km/h ) from Gust ( km/h ) Pressure ( hPa ) Humid.( % ) Rainrate ( cm )
00:01 8,0 6,1   Calm   1008,4 88 -
00:11 7,8 5,9   Calm   1008,4 88 -
00:21 7,7 5,8   Calm   1008,4 88 -
00:32 7,6 5,7   Calm   1008,4 88 -
00:42 7,5 5,6   Calm   1007,3 88 -
00:53 7,4 5,5   Calm   1007,3 88 -
01:03 7,4 5,5   Calm   1007,3 88 -
01:14 7,3 5,4   Calm   1007,3 88 -
01:24 7,2 5,3   Calm   1007,3 88 -
01:35 7,1 5,2   Calm   1007,3 88 -
01:45 7,1 5,2   Calm   1007,3 88 -
01:56 7,1 5,2   Calm   1006,3 88 -
02:06 7,1 5,2   Calm   1006,3 88 -
02:17 7,1 5,2   Calm 14,5 1006,3 88 -
02:27 7,0 5,1   Calm   1006,3 88 -
02:38 7,0 5,1   Calm   1006,3 88 -
02:48 7,3 5,4   Calm 30,6 1006,3 88 -
02:58 7,5 5,6   Calm 12,9 1005,3 88 -
03:08 7,6 5,7   Calm 24,1 1005,3 88 -
03:19 7,8 5,9   Calm 24,1 1005,3 88 -
03:29 7,8 5,9   Calm 12,9 1005,3 88 -
03:39 7,8 5,9   Calm 12,9 1005,3 88 -
03:49 8,0 6,1   Calm 19,3 1004,3 88 -
04:00 8,2 6,3   Calm 17,7 1004,3 88 -
04:10 8,2 6,2   Calm 17,7 1004,3 87 -
04:21 8,2 6,2   Calm 14,5 1004,3 87 -
04:31 8,4 6,3   Calm 25,7 1004,3 86 -
04:42 8,3 6,1   Calm 17,7 1004,3 86 -
04:52 8,2 6,0   Calm 17,7 1004,3 86 -
05:02 8,1 5,9   Calm 27,4 1004,3 86 -
05:13 8,0 5,8   Calm 27,4 1003,3 86 -
05:23 7,9 5,9   Calm 12,9 1003,3 87 -
05:34 7,8 5,8   Calm 24,1 1003,3 87 -
05:44 7,7 5,7   Calm 27,4 1003,3 87 -
05:55 7,6 5,6   Calm 27,4 1003,3 87 -
06:05 7,5 5,6   Calm 17,7 1003,3 88 -
06:16 7,3 5,4   Calm 20,9 1003,3 88 -
06:26 7,2 5,3   Calm 17,7 1003,3 88 -
06:36 7,2 5,3   Calm 19,3 1003,3 88 -
06:47 7,1 5,2   Calm 17,7 1003,3 88 -
06:57 7,1 5,2   Calm 17,7 1003,3 88 -
07:07 7,1 5,2   Calm 19,3 1003,3 88 -
07:18 7,2 5,2   Calm 19,3 1003,3 87 -
07:28 7,2 5,2   Calm 24,1 1003,3 87 -
07:38 7,1 5,1   Calm 14,5 1003,3 87 -
07:48 7,0 5,0   Calm 14,5 1003,3 87 -
07:59 7,0 5,0   Calm 19,3 1003,3 87 -
08:10 7,0 5,0   Calm   1003,3 87 -
08:20 7,1 4,9   Calm 17,7 1003,3 86 -
08:31 7,3 4,9   Calm 14,5 1003,3 85 -
08:41 7,4 5,0   Calm 14,5 1003,3 85 -
08:51 7,5 5,0   Calm 17,7 1003,3 84 -
09:02 7,9 5,2   Calm 17,7 1003,3 83 -
09:12 8,3 5,1   Calm 19,3 1003,3 80 -
09:22 8,5 4,7   Calm 24,1 1003,3 77 -
09:33 8,7 4,6   Calm 24,1 1003,3 75 -
09:44 8,8 4,6   Calm 17,7 1003,3 75 -
09:53 9,0 4,6   Calm 17,7 1002,3 74 -
10:04 9,0 4,5   Calm 24,1 1002,3 73 -
10:14 9,2 4,6   Calm 24,1 1002,3 73 -
10:25 9,4 5,0   Calm 24,1 1002,3 74 -
10:35 9,9 5,1   Calm 32,2 1002,3 72 -
10:45 10,5 5,1   Calm 30,6 1002,3 69 -
10:56 10,8 5,1   Calm 40,2 1002,3 68 -
11:06 11,1 5,2   Calm 24,1 1002,3 67 -
11:17 11,4 5,5   Calm 33,8 1002,3 67 -
11:27 11,7 5,8   Calm 33,8 1003,3 67 -
11:38 12,0 5,2   Calm 17,7 1003,3 63 -
11:48 12,1 5,2   Calm 57,9 1002,3 62 -
11:58 12,2 5,1   Calm 17,7 1002,3 62 -
12:08 12,3 5,0   Calm 19,3 1002,3 61 -
12:19 12,4 5,6   Calm 17,7 1002,3 63 -
12:29 12,4 5,3   Calm 19,3 1002,3 62 -
12:39 12,4 5,6   Calm 17,7 1002,3 63 -
12:50 12,5 5,6   Calm 33,8 1003,3 63 -
13:00 12,5 5,8   Calm 17,7 1002,3 63 -
13:10 12,6 6,2   Calm 25,7 1002,3 65 -
13:21 12,7 6,3   Calm 27,4 1002,3 65 -
13:31 12,7 6,5   Calm 17,7 1002,3 66 -
13:42 12,9 6,9   Calm 25,7 1002,3 67 -
13:53 13,1 7,3   Calm 25,7 1002,3 68 -
14:03 13,1 7,3   Calm 19,3 1002,3 68 -
14:14 13,0 7,2   Calm 25,7 1002,3 68 -
14:24 12,9 7,6   Calm 25,7 1002,3 70 -
14:34 12,8 7,8   Calm 14,5 1002,3 71 -
14:45 12,7 7,6   Calm 19,3 1002,3 71 -
14:55 12,6 7,7   Calm 24,1 1002,3 72 -
15:05 12,4 7,7   Calm 17,7 1002,3 73 -
15:15 12,4 7,9   Calm 14,5 1002,3 74 -
15:26 12,4 8,1   Calm 25,7 1002,3 75 -
15:36 12,3 8,0   Calm 25,7 1002,3 75 -
15:46 12,3 8,3   Calm 20,9 1002,3 76 -
15:56 12,1 8,4   Calm 25,7 1002,3 78 -
16:07 11,8 8,5   Calm 25,7 1002,3 80 -
16:17 11,6 8,5   Calm 17,7 1003,3 81 -
16:28 11,5 8,5   Calm 14,5 1003,3 82 -
Daily Summary for Sunday Feb 17 2019
Time Temp. ( °C ) Dew pt. ( °C ) Wind ( km/h ) from Gust ( km/h ) Pressure ( hPa ) Humid.( % ) Rainrate ( cm )
High13,1 8,5 0,0 ( 0/0 ) 57,9 1008,4 88 -
Average9,3 5,9 0,0 Calm #96/96 18,1 1003,8 80 -
Low7,0 4,5 -   0,0 1002,3 61 -
Daily Tabular details for Sunday Feb 17 2019
Time Temp. ( °C ) Dew pt. ( °C ) Wind ( km/h ) from Gust ( km/h ) Pressure ( hPa ) Humid.( % ) Rainrate ( cm )
00:01 8,0 6,1   Calm   1008,4 88 -
00:11 7,8 5,9   Calm   1008,4 88 -
00:21 7,7 5,8   Calm   1008,4 88 -
00:32 7,6 5,7   Calm   1008,4 88 -
00:42 7,5 5,6   Calm   1007,3 88 -
00:53 7,4 5,5   Calm   1007,3 88 -
01:03 7,4 5,5   Calm   1007,3 88 -
01:14 7,3 5,4   Calm   1007,3 88 -
01:24 7,2 5,3   Calm   1007,3 88 -
01:35 7,1 5,2   Calm   1007,3 88 -
01:45 7,1 5,2   Calm   1007,3 88 -
01:56 7,1 5,2   Calm   1006,3 88 -
02:06 7,1 5,2   Calm   1006,3 88 -
02:17 7,1 5,2   Calm 14,5 1006,3 88 -
02:27 7,0 5,1   Calm   1006,3 88 -
02:38 7,0 5,1   Calm   1006,3 88 -
02:48 7,3 5,4   Calm 30,6 1006,3 88 -
02:58 7,5 5,6   Calm 12,9 1005,3 88 -
03:08 7,6 5,7   Calm 24,1 1005,3 88 -
03:19 7,8 5,9   Calm 24,1 1005,3 88 -
03:29 7,8 5,9   Calm 12,9 1005,3 88 -
03:39 7,8 5,9   Calm 12,9 1005,3 88 -
03:49 8,0 6,1   Calm 19,3 1004,3 88 -
04:00 8,2 6,3   Calm 17,7 1004,3 88 -
04:10 8,2 6,2   Calm 17,7 1004,3 87 -
04:21 8,2 6,2   Calm 14,5 1004,3 87 -
04:31 8,4 6,3   Calm 25,7 1004,3 86 -
04:42 8,3 6,1   Calm 17,7 1004,3 86 -
04:52 8,2 6,0   Calm 17,7 1004,3 86 -
05:02 8,1 5,9   Calm 27,4 1004,3 86 -
05:13 8,0 5,8   Calm 27,4 1003,3 86 -
05:23 7,9 5,9   Calm 12,9 1003,3 87 -
05:34 7,8 5,8   Calm 24,1 1003,3 87 -
05:44 7,7 5,7   Calm 27,4 1003,3 87 -
05:55 7,6 5,6   Calm 27,4 1003,3 87 -
06:05 7,5 5,6   Calm 17,7 1003,3 88 -
06:16 7,3 5,4   Calm 20,9 1003,3 88 -
06:26 7,2 5,3   Calm 17,7 1003,3 88 -
06:36 7,2 5,3   Calm 19,3 1003,3 88 -
06:47 7,1 5,2   Calm 17,7 1003,3 88 -
06:57 7,1 5,2   Calm 17,7 1003,3 88 -
07:07 7,1 5,2   Calm 19,3 1003,3 88 -
07:18 7,2 5,2   Calm 19,3 1003,3 87 -
07:28 7,2 5,2   Calm 24,1 1003,3 87 -
07:38 7,1 5,1   Calm 14,5 1003,3 87 -
07:48 7,0 5,0   Calm 14,5 1003,3 87 -
07:59 7,0 5,0   Calm 19,3 1003,3 87 -
08:10 7,0 5,0   Calm   1003,3 87 -
08:20 7,1 4,9   Calm 17,7 1003,3 86 -
08:31 7,3 4,9   Calm 14,5 1003,3 85 -
08:41 7,4 5,0   Calm 14,5 1003,3 85 -
08:51 7,5 5,0   Calm 17,7 1003,3 84 -
09:02 7,9 5,2   Calm 17,7 1003,3 83 -
09:12 8,3 5,1   Calm 19,3 1003,3 80 -
09:22 8,5 4,7   Calm 24,1 1003,3 77 -
09:33 8,7 4,6   Calm 24,1 1003,3 75 -
09:44 8,8 4,6   Calm 17,7 1003,3 75 -
09:53 9,0 4,6   Calm 17,7 1002,3 74 -
10:04 9,0 4,5   Calm 24,1 1002,3 73 -
10:14 9,2 4,6   Calm 24,1 1002,3 73 -
10:25 9,4 5,0   Calm 24,1 1002,3 74 -
10:35 9,9 5,1   Calm 32,2 1002,3 72 -
10:45 10,5 5,1   Calm 30,6 1002,3 69 -
10:56 10,8 5,1   Calm 40,2 1002,3 68 -
11:06 11,1 5,2   Calm 24,1 1002,3 67 -
11:17 11,4 5,5   Calm 33,8 1002,3 67 -
11:27 11,7 5,8   Calm 33,8 1003,3 67 -
11:38 12,0 5,2   Calm 17,7 1003,3 63 -
11:48 12,1 5,2   Calm 57,9 1002,3 62 -
11:58 12,2 5,1   Calm 17,7 1002,3 62 -
12:08 12,3 5,0   Calm 19,3 1002,3 61 -
12:19 12,4 5,6   Calm 17,7 1002,3 63 -
12:29 12,4 5,3   Calm 19,3 1002,3 62 -
12:39 12,4 5,6   Calm 17,7 1002,3 63 -
12:50 12,5 5,6   Calm 33,8 1003,3 63 -
13:00 12,5 5,8   Calm 17,7 1002,3 63 -
13:10 12,6 6,2   Calm 25,7 1002,3 65 -
13:21 12,7 6,3   Calm 27,4 1002,3 65 -
13:31 12,7 6,5   Calm 17,7 1002,3 66 -
13:42 12,9 6,9   Calm 25,7 1002,3 67 -
13:53 13,1 7,3   Calm 25,7 1002,3 68 -
14:03 13,1 7,3   Calm 19,3 1002,3 68 -
14:14 13,0 7,2   Calm 25,7 1002,3 68 -
14:24 12,9 7,6   Calm 25,7 1002,3 70 -
14:34 12,8 7,8   Calm 14,5 1002,3 71 -
14:45 12,7 7,6   Calm 19,3 1002,3 71 -
14:55 12,6 7,7   Calm 24,1 1002,3 72 -
15:05 12,4 7,7   Calm 17,7 1002,3 73 -
15:15 12,4 7,9   Calm 14,5 1002,3 74 -
15:26 12,4 8,1   Calm 25,7 1002,3 75 -
15:36 12,3 8,0   Calm 25,7 1002,3 75 -
15:46 12,3 8,3   Calm 20,9 1002,3 76 -
15:56 12,1 8,4   Calm 25,7 1002,3 78 -
16:07 11,8 8,5   Calm 25,7 1002,3 80 -
16:17 11,6 8,5   Calm 17,7 1003,3 81 -
16:28 11,5 8,5   Calm 14,5 1003,3 82 -

Download your copy of this data-set  here

Our weather-data as stored at Weather Underground. Script developed by Jim McMurry. Adapted for the template by Leuven-Template.eu

You find our weather info also at:

Weather Underground

Equipment we use:

Weather-station
Oregon WMR928

Weather-server
ALIX_1D

Provider
Meteohub

Oregon WMR928

ALIX_1D

Meteohub



Kenley Weather Cam Time Lapse

Original Kenley Weather needs Flash

Main Web Site

Outdoor Temp 1 and 2

Kenley Radiation

Graphs/Charts